DW2817 Weather Reports


time (UTC)temp
C
wind
direction
speed
KPH
gust
KPH
rain 1hr
cm
rain 24hr
cm
rain mn
cm
humidity
%
barometer
mb
20260507194005 7 290 1.6 4.8 0.00 0.00 0.00 79 1001.7
20260507193005 7 290 0.0 1.6 0.00 0.00 0.00 78 1001.5
20260507192006 7 290 0.0 3.2 0.00 0.00 0.00 78 1001.3
20260507191005 7 290 0.0 3.2 0.00 0.00 0.00 77 1001.3
20260507190006 7 290 1.6 3.2 0.00 0.00 0.00 77 1001.2
20260507185006 7 290 1.6 3.2 0.00 0.00 0.00 76 1001.1
20260507184003 7 290 0.0 3.2 0.00 0.00 0.00 74 1000.9
20260507182003 8 310 0.0 6.4 0.00 0.00 0.00 72 1000.8
20260507181003 8 37 1.6 6.4 0.00 0.00 0.00 71 1000.4
20260507174004 9 156 1.6 9.7 0.00 0.00 0.00 69 1000.1
20260507173003 9 16 3.2 9.7 0.00 0.00 0.00 68 1000.1
20260507172004 10 345 3.2 9.7 0.00 0.00 0.00 67 999.8
20260507171003 10 7 3.2 11.3 0.00 0.00 0.00 66 999.7
20260507170003 11 333 3.2 9.7 0.00 0.00 0.00 62 999.6
20260507165001 12 112 9.7 25.7 0.00 0.00 0.00 61 999.5
20260507163002 12 303 8.0 22.5 0.00 0.00 0.00 53 999.3
20260507162002 13 295 11.3 22.5 0.00 0.00 0.00 49 999.2
20260507161001 14 301 3.2 17.7 0.00 0.00 0.00 50 999.2
20260507160001 14 86 3.2 20.9 0.00 0.00 0.00 48 999.0
20260507154959 12 11 11.3 24.1 0.00 0.00 0.00 55 999.2
20260507153959 11 299 12.9 24.1 0.00 0.00 0.00 58 999.2
20260507152959 12 270 9.7 20.9 0.00 0.00 0.00 57 999.2
20260507152000 12 292 11.3 24.1 0.00 0.00 0.00 56 999.2
20260507151000 12 325 9.7 24.1 0.00 0.00 0.00 54 999.0
20260507145957 12 284 9.7 19.3 0.00 0.00 0.00 45 999.0
20260507144957 13 284 9.7 22.5 0.00 0.00 0.00 48 998.9
20260507143957 13 282 9.7 25.7 0.00 0.00 0.00 50 999.0
20260507142958 13 248 9.7 25.7 0.00 0.00 0.00 50 999.2
20260507141958 13 144 4.8 12.9 0.00 0.00 0.00 49 999.0
20260507141002 13 209 9.7 22.5 0.00 0.00 0.00 45 999.2
20260507135957 13 177 9.7 22.5 0.00 0.00 0.00 49 999.3
20260507134957 13 171 9.7 19.3 0.00 0.00 0.00 47 999.2
20260507133958 13 184 6.4 20.9 0.00 0.00 0.00 49 999.3
20260507132957 13 157 8.0 20.9 0.00 0.00 0.00 53 999.3
20260507131955 13 137 9.7 17.7 0.00 0.05 0.00 50 999.4
20260507125953 14 132 4.8 14.5 0.00 0.28 0.00 62 999.4
20260507124954 13 84 4.8 16.1 0.00 0.38 0.00 64 999.4
20260507123954 14 70 4.8 16.1 0.00 0.46 0.00 65 999.3
20260507122954 14 33 3.2 8.0 0.00 0.56 0.00 67 999.3
20260507121953 14 130 3.2 9.7 0.00 0.61 0.00 63 999.4
20260507115951 12 108 3.2 6.4 0.00 0.66 0.00 70 999.5
20260507114951 11 152 1.6 6.4 0.00 0.69 0.00 70 999.5
20260507113951 10 113 1.6 9.7 0.00 0.71 0.00 69 999.6
20260507112952 10 186 1.6 9.7 0.00 0.71 0.00 70 999.5
20260507111949 10 212 1.6 8.0 0.00 0.71 0.00 70 999.5
20260507110947 10 32 3.2 8.0 0.00 0.74 0.00 69 999.7
20260507105947 10 112 1.6 6.4 0.00 0.76 0.00 71 999.7
20260507103948 10 130 3.2 8.0 0.00 0.81 0.00 68 999.8
20260507102948 10 130 3.2 9.7 0.00 0.84 0.00 69 1000.0
20260507101948 10 154 1.6 6.4 0.00 0.86 0.00 70 1000.0
20260507100935 10 263 3.2 6.4 0.00 0.86 0.00 68 1000.0
20260507095950 10 126 3.2 6.4 0.00 0.86 0.00 68 1000.1
20260507094937 10 99 3.2 11.3 0.00 0.86 0.00 69 1000.0
20260507093936 11 153 4.8 11.3 0.00 0.86 0.00 72 1000.0
20260507092935 10 182 3.2 8.0 0.00 0.86 0.00 74 1000.0
20260507090931 10 138 3.2 11.3 0.00 0.86 0.00 74 999.8
20260507085931 10 278 3.2 11.3 0.00 0.89 0.00 69 999.8
20260507084931 11 40 3.2 9.7 0.00 0.89 0.00 62 999.7
20260507083932 10 13 3.2 9.7 0.00 0.89 0.00 66 999.7
20260507080935 9 105 3.2 8.0 0.00 0.89 0.00 70 999.6
20260507074931 8 165 3.2 8.0 0.00 0.89 0.00 74 999.8
20260507073931 7 138 4.8 8.0 0.00 0.89 0.00 76 999.7
20260507072932 7 146 3.2 6.4 0.00 0.89 0.00 79 999.7
20260507071933 6 178 1.6 4.8 0.00 0.89 0.00 79 999.7
20260507070932 6 155 3.2 6.4 0.00 0.89 0.00 80 999.7
20260507065930 6 128 3.2 6.4 0.00 0.89 0.00 81 999.7
20260507064922 5 140 1.6 6.4 0.00 0.89 0.00 81 999.7
20260507063920 5 172 1.6 3.2 0.00 0.91 0.00 81 999.7
20260507062920 4 172 0.0 3.2 0.00 0.99 0.00 81 999.6
20260507061920 3 172 1.6 3.2 0.00 1.02 0.00 81 999.6
20260507060919 3 172 0.0 3.2 0.00 1.04 0.00 81 999.5
20260507055915 3 172 1.6 3.2 0.00 1.04 0.00 81 999.4
20260507054915 3 172 0.0 3.2 0.00 1.04 0.00 81 999.3
20260507053915 3 172 0.0 3.2 0.00 1.04 0.00 81 999.3
20260507052915 3 172 0.0 3.2 0.00 1.04 0.00 81 999.2
20260507051915 2 172 1.6 3.2 0.00 1.04 0.00 81 999.0
20260507050915 2 172 0.0 3.2 0.00 1.04 0.00 81 998.7
20260507045917 2 172 0.0 4.8 0.00 1.04 0.00 80 998.7
20260507044915 2 172 1.6 4.8 0.00 1.04 0.00 80 998.7
20260507043915 2 172 1.6 4.8 0.00 1.04 0.00 80 998.7
20260507042916 2 172 1.6 3.2 0.00 1.04 0.00 81 998.6
20260507041916 2 172 0.0 3.2 0.00 1.04 0.00 81 998.4
20260507040914 2 172 1.6 3.2 0.00 1.04 0.00 81 998.5
20260507035923 2 172 1.6 4.8 0.00 1.04 0.00 81 998.4
20260507034909 2 172 1.6 4.8 0.00 1.04 0.00 81 998.5
20260507033903 2 184 1.6 6.4 0.00 1.04 0.00 81 998.6
20260507032859 2 213 3.2 6.4 0.00 1.04 0.00 81 998.4
20260507030854 2 161 1.6 4.8 0.00 1.07 0.00 80 998.6
20260507025850 2 161 1.6 6.4 0.00 1.07 0.00 80 998.6
20260507024847 2 161 3.2 6.4 0.00 1.07 0.00 80 998.5
20260507023846 2 201 3.2 6.4 0.00 1.07 0.00 80 998.5
20260507021836 2 224 0.0 3.2 0.00 1.07 0.00 80 998.4
20260507020837 2 224 1.6 3.2 0.00 1.07 0.00 80 998.4
20260507015837 3 235 1.6 4.8 0.00 1.07 0.00 80 998.5
20260507013845 2 176 1.6 8.0 0.00 1.07 0.00 80 998.1
20260507012835 3 174 3.2 8.0 0.00 1.07 0.00 80 998.0
20260507011855 3 282 0.0 0.0 0.00 1.07 0.00 79 998.0
20260507010827 3 282 0.0 0.0 0.00 1.07 0.00 78 998.0
20260507005821 3 282 0.0 0.0 0.00 1.07 0.00 78 998.2
20260507004820 3 282 0.0 0.0 0.00 1.07 0.00 78 998.0
20260507003815 3 282 0.0 0.0 0.00 1.07 0.00 78 998.0
20260507002759 3 282 0.0 0.0 0.00 1.09 0.00 78 998.0
20260507001812 3 282 0.0 0.0 0.00 1.09 0.00 78 997.8
20260507000807 3 283 0.0 0.0 0.00 1.09 0.00 77 997.9
20260506235806 3 178 0.0 0.0 0.00 1.09 0.00 78 997.9
20260506234746 4 178 0.0 0.0 0.00 1.09 0.00 78 997.9
20260506231754 4 178 0.0 0.0 0.00 1.09 0.00 76 998.0
20260506230751 4 179 0.0 0.0 0.00 1.09 0.00 76 997.9
20260506225750 4 179 0.0 0.0 0.00 1.09 0.00 76 997.5
20260506224725 4 179 0.0 0.0 0.00 1.09 0.00 76 997.8
20260506223719 4 226 0.0 0.0 0.00 1.09 0.00 76 997.7
20260506222715 4 174 0.0 0.0 0.00 1.12 0.00 76 997.5
20260506220713 5 174 0.0 0.0 0.00 1.12 0.00 77 997.5
20260506215710 4 174 0.0 0.0 0.00 1.12 1.12 78 997.5
20260506214703 5 174 0.0 0.0 0.00 1.12 1.12 78 997.5
20260506213658 5 174 0.0 0.0 0.00 1.12 1.12 78 997.4
20260506212656 5 174 0.0 0.0 0.00 1.12 1.12 78 997.5
20260506211652 5 174 0.0 0.0 0.00 1.12 1.12 79 997.5
20260506205648 5 174 0.0 0.0 0.00 1.14 1.12 79 997.3
20260506204642 5 174 0.0 0.0 0.00 1.14 1.12 79 997.2
20260506203642 5 174 0.0 0.0 0.00 1.14 1.12 79 997.3
20260506202642 5 174 0.0 0.0 0.00 1.14 1.12 79 997.2
20260506201656 5 174 0.0 6.4 0.00 1.14 1.12 79 997.1
20260506200651 5 174 1.6 6.4 0.00 1.14 1.12 79 997.1
20260506195657 5 246 1.6 4.8 0.00 1.14 1.12 79 997.0
20260506194653 5 246 1.6 4.8 0.00 1.14 1.12 79 996.9